This is the latest recevied weather packets stored in our database for station/object IW1EYZ-3. If no packets are shown the sender has not sent any weather packets the latest 10 day(s).
| Time | Temp. | Humidity | Pressure | Rain* | Wind** | Luminosity | Snow |
|---|---|---|---|---|---|---|---|
| 1777439612 | 15° C | 53% | 1017.1 hPa | - | - | - | - |
| 1777438412 | 15° C | 53% | 1017 hPa | - | - | - | - |
| 1777437212 | 14.44° C | 50% | 1016.7 hPa | - | - | - | - |
| 1777436011 | 14.44° C | 50% | 1016.7 hPa | - | - | - | - |
| 1777434811 | 15° C | 50% | 1016.7 hPa | - | - | - | - |
| 1777433611 | 15° C | 51% | 1016.8 hPa | - | - | - | - |
| 1777432410 | 15° C | 49% | 1016.9 hPa | - | - | - | - |
| 1777431210 | 15.56° C | 51% | 1016.9 hPa | - | - | - | - |
| 1777430010 | 15° C | 59% | 1017 hPa | - | - | - | - |
| 1777428809 | 15° C | 56% | 1017.2 hPa | - | - | - | - |
| 1777427609 | 15.56° C | 56% | 1017.1 hPa | - | - | - | - |
| 1777426409 | 15.56° C | 56% | 1017 hPa | - | - | - | - |
| 1777425208 | 15.56° C | 52% | 1016.9 hPa | - | - | - | - |
| 1777424008 | 15.56° C | 51% | 1016.8 hPa | - | - | - | - |
| 1777422808 | 15.56° C | 52% | 1016.8 hPa | - | - | - | - |
| 1777421608 | 15.56° C | 51% | 1016.8 hPa | - | - | - | - |
| 1777420407 | 16.11° C | 54% | 1016.8 hPa | - | - | - | - |
| 1777419207 | 16.11° C | 57% | 1016.7 hPa | - | - | - | - |
| 1777418006 | 16.11° C | 57% | 1016.8 hPa | - | - | - | - |
| 1777416806 | 16.11° C | 58% | 1016.7 hPa | - | - | - | - |
| 1777415606 | 16.67° C | 57% | 1016.7 hPa | - | - | - | - |
| 1777414405 | 16.67° C | 55% | 1016.8 hPa | - | - | - | - |
| 1777413205 | 16.67° C | 54% | 1016.8 hPa | - | - | - | - |
| 1777412005 | 16.67° C | 53% | 1016.8 hPa | - | - | - | - |
| 1777410805 | 17.22° C | 52% | 1016.7 hPa | - | - | - | - |
* Rain since midnight (hover to see other rain measurements)
** Current wind speed in m/s (hover to see current wind gust speed)